Home   Weather   Gdańsk   Past weeks

Flag for Poland Past Weather in Gdańsk, Poland — Yesterday and Last 2 Weeks

Now
64 °F

Broken clouds.


Feels Like: 64 °F
Forecast: 62 / 67 °F
Wind: 15 mph from Northeast

Location: Gdansk-Rebiechowo

Current Time: Jul 25, 2017 at 4:59:19 pm

Latest Report: Jul 25, 2017 at 4:00 pm


Visibility: N/A

Pressure: 29.59 "Hg

Humidity: 94%

Dew Point: 63 °F

Location of GdańskLocation

Past Weather in Gdańsk — Graph

°F

Gdańsk Temperature Yesterday

Maximum temperature yesterday: 70 °F (at 2:00 pm)
Minimum temperature yesterday: 59 °F (at 12:30 am)
Average temperature yesterday: 63 °F

High & Low Weather Summary for the Past Weeks

 TemperatureHumidityPressure
High73 °F (Jul 12, 3:00 pm)100% (Jul 10, 8:30 pm)30.15 "Hg (Jul 10, 8:30 pm)
Low45 °F (Jul 15, 5:00 am)40% (Jul 16, 2:00 pm)29.59 "Hg (Jul 25, 3:00 pm)
Average61 °F80%29.94 "Hg
* Reported Jul 10 3:00 pm — Jul 25 3:30 pm, Gdańsk. Weather by CustomWeather, © 2017

Note: Actual official high and low records may vary slightly from our data, if they occured in-between our weather recording intervals... More about our weather records

Advertising

Gdańsk Weather History for the Previous 24 Hours

Scroll right to see more
 ConditionsComfort  
Time TempWeatherWind HumidityBarometerVisibility
3:30 pm
Tue, Jul 25
64 °FBroken clouds.15 mph94%29.59 "HgN/A
3:00 pm64 °FPartly sunny.14 mph88%29.59 "HgN/A
2:30 pm64 °FPartly sunny.15 mph94%29.62 "HgN/A
2:00 pm64 °FPartly sunny.15 mph88%29.62 "HgN/A
1:30 pm64 °FPartly sunny.15 mph88%29.62 "HgN/A
1:00 pm64 °FPartly sunny.14 mph88%29.62 "HgN/A
12:30 pm63 °FPartly sunny.13 mph94%29.62 "HgN/A
12:00 pm64 °FPartly sunny.13 mph83%29.62 "HgN/A
11:30 am63 °FPartly sunny.12 mph94%29.62 "HgN/A
11:00 am63 °FPartly sunny.13 mph94%29.62 "HgN/A
10:30 am64 °FPartly sunny.10 mph88%29.62 "HgN/A
10:00 am63 °FPartly sunny.10 mph94%29.62 "HgN/A
9:30 am63 °FLow clouds.9 mph94%29.62 "HgN/A
9:00 am63 °FLow clouds.12 mph94%29.62 "HgN/A
8:30 am63 °FPartly sunny.12 mph94%29.62 "HgN/A
8:00 am63 °FPartly sunny.13 mph94%29.65 "HgN/A
7:30 am63 °FPartly sunny.12 mph94%29.65 "HgN/A
7:00 am63 °FBroken clouds.9 mph94%29.65 "HgN/A
6:30 am61 °FBroken clouds.9 mph100%29.65 "HgN/A
6:00 am61 °FBroken clouds.9 mph100%29.68 "HgN/A
5:30 am61 °FPartly sunny.9 mph100%29.68 "HgN/A
5:00 am63 °FBroken clouds.7 mph94%29.68 "HgN/A
4:30 am61 °FPartly cloudy.9 mph100%29.68 "HgN/A
4:00 am61 °FPassing clouds.8 mph100%29.68 "HgN/A
3:30 am61 °FMostly cloudy.5 mph100%29.71 "HgN/A
3:00 am61 °FLight rain. Low clouds.3 mph94%29.71 "HgN/A
2:30 am61 °FPartly cloudy.3 mph94%29.71 "HgN/A
2:00 am61 °FMostly cloudy.6 mph94%29.71 "HgN/A
1:30 am61 °FLow clouds.5 mph94%29.74 "HgN/A
1:00 am61 °FLow clouds.5 mph94%29.74 "HgN/A
12:30 am61 °FMostly cloudy.6 mph94%29.74 "HgN/A
12:00 am61 °FLow clouds.3 mph94%29.74 "HgN/A
11:30 pm
Mon, Jul 24
61 °FLow clouds.5 mph94%29.74 "HgN/A
11:00 pm61 °FLow clouds.5 mph94%29.77 "HgN/A
10:30 pm61 °FLow clouds.5 mph94%29.77 "HgN/A
10:00 pm59 °FPassing clouds.2 mph100%29.77 "HgN/A
9:30 pm59 °FPassing clouds.3 mph94%29.77 "HgN/A
9:00 pm61 °FPassing clouds.5 mph94%29.77 "HgN/A
8:30 pm63 °FPartly sunny.7 mph88%29.77 "HgN/A
8:00 pm63 °FPartly sunny.7 mph88%29.77 "HgN/A
7:30 pm63 °FPartly sunny.7 mph88%29.77 "HgN/A
7:00 pm63 °FPartly sunny.8 mph88%29.77 "HgN/A
6:30 pm64 °FScattered clouds.10 mph88%29.77 "HgN/A
6:00 pm64 °FScattered clouds.10 mph83%29.80 "HgN/A
5:30 pm66 °FScattered clouds.9 mph83%29.80 "HgN/A
5:00 pm64 °FBroken clouds.9 mph88%29.80 "HgN/A
4:30 pm66 °FPartly sunny.9 mph83%29.80 "HgN/A
4:00 pm68 °FScattered clouds.9 mph78%29.80 "HgN/A
Weather by CustomWeather, © 2017

See weather overviewHow to use our weather pages